Date String (YYYY-MM-DD hh:mm:ss) UTC,Instrument flags,Ambient pressure (hPa),Sample flow (lpm),Bypass flow (lpm),Sample temperature (°C),Ambient temperature (°C),ASC tube jacket temperature (°C),LED temperature (°C),Box temperature (°C),Sample RH (%),Span deviation,Mass concentration (μg/m³),Mass concentration (μg/m³),Mass concentration (μg/m³)
DateTimeUTC,F1_M11,P_M11,Q1_M11,Q2_M11,T1_M11,T2_M11,T3_M11,T4_M11,T5_M11,U1_M11,ZSPAN_M11,X2_M11,X0_M11,X1_M11
2023-05-02 14:00:00,,0830.0,5.00,0.00,26.6,25.1,00.0,35.0,28.2,15.1,0004.6,0006.01,0018.19,0004.79
2023-05-02 14:01:00,,0830.0,5.00,0.00,26.6,25.1,00.0,35.0,28.2,15.2,0004.4,0006.02,0017.87,0004.79
2023-05-02 14:02:00,,0830.0,5.01,0.00,26.6,25.1,00.0,35.0,28.2,15.2,0003.8,0006.01,0017.60,0004.78
2023-05-02 14:03:00,,0830.0,5.00,0.00,26.6,25.1,00.0,35.0,28.2,15.1,0003.4,0006.03,0017.79,0004.79
2023-05-02 14:04:00,,0830.0,5.00,0.00,26.6,25.1,00.0,35.0,28.2,15.1,0003.2,0006.07,0017.77,0004.79
2023-05-02 14:05:00,,0830.0,4.99,0.00,26.6,25.1,00.0,35.0,28.2,15.2,0003.0,0006.02,0017.79,0004.76
2023-05-02 14:06:00,,0830.0,5.00,0.00,26.6,25.1,00.0,35.0,28.2,15.2,0002.9,0005.98,0016.67,0004.72
2023-05-02 14:07:00,,0830.0,5.01,0.00,26.6,25.1,00.0,35.0,28.2,15.0,0004.1,0006.01,0017.05,0004.71
2023-05-02 14:08:00,,0829.9,5.00,0.00,26.6,25.2,00.0,35.0,28.2,15.1,0004.5,0006.03,0017.78,0004.70
2023-05-02 14:09:00,,0830.0,5.00,0.00,26.6,25.2,00.0,35.0,28.3,15.0,0004.5,0006.06,0017.35,0004.69
2023-05-02 14:10:00,,0829.9,4.99,0.00,26.7,25.2,00.0,35.0,28.2,15.0,0004.9,0006.09,0016.91,0004.70
2023-05-02 14:11:00,,0829.9,5.00,0.00,26.7,25.2,00.0,35.0,28.3,15.0,0004.9,0006.12,0017.36,0004.71
2023-05-02 14:12:00,,0829.9,5.00,0.00,26.7,25.2,00.0,35.0,28.3,15.2,0004.8,0006.14,0017.37,0004.70
2023-05-02 14:13:00,,0829.9,5.00,0.00,26.7,25.2,00.0,35.0,28.3,15.0,0005.1,0006.12,0017.46,0004.70
2023-05-02 14:14:00,,0829.9,5.00,0.00,26.7,25.2,00.0,35.0,28.3,15.0,0005.4,0006.13,0018.51,0004.70
2023-05-02 14:15:00,,0829.8,5.01,0.00,26.7,25.2,00.0,35.0,28.3,15.3,0005.3,0006.14,0018.97,0004.70
2023-05-02 14:16:00,,0829.8,5.01,0.00,26.7,25.2,00.0,35.0,28.3,15.3,0005.7,0006.16,0017.93,0004.71
2023-05-02 14:17:00,,0829.8,4.99,0.00,26.7,25.2,00.0,35.0,28.3,15.2,0005.8,0006.19,0017.90,0004.71
2023-05-02 14:18:00,,0829.8,4.98,0.00,26.7,25.2,00.0,35.0,28.3,15.2,0006.0,0006.18,0017.46,0004.72
2023-05-02 14:19:00,,0829.8,5.00,0.00,26.7,25.2,00.0,35.0,28.3,15.1,0005.8,0006.18,0016.95,0004.72
2023-05-02 14:20:00,,0829.8,5.00,0.00,26.7,25.2,00.0,35.0,28.3,15.2,0005.8,0006.18,0016.95,0004.73
2023-05-02 14:21:00,,0829.8,5.00,0.00,26.7,25.3,00.0,35.0,28.3,15.2,0005.1,0006.21,0017.21,0004.72
2023-05-02 14:22:00,,0829.9,5.01,0.00,26.7,25.3,00.0,35.0,28.3,15.2,0004.8,0006.25,0016.98,0004.73
2023-05-02 14:23:00,,0829.9,5.00,0.00,26.7,25.3,00.0,35.0,28.3,15.1,0004.9,0006.26,0016.20,0004.75
2023-05-02 14:24:00,,0829.9,5.00,0.00,26.7,25.3,00.0,35.0,28.3,15.2,0004.8,0006.27,0016.86,0004.76
2023-05-02 14:25:00,,0830.0,5.00,0.00,26.7,25.3,00.0,35.1,28.3,15.2,0004.5,0006.26,0015.91,0004.76
2023-05-02 14:26:00,,0830.0,5.00,0.00,26.7,25.3,00.0,35.0,28.4,15.2,0004.5,0006.22,0015.18,0004.75
2023-05-02 14:27:00,,0830.0,5.00,0.00,26.7,25.3,00.0,35.1,28.4,15.3,0004.1,0006.24,0015.06,0004.76
2023-05-02 14:28:00,,0830.0,5.00,0.00,26.7,25.3,00.0,35.1,28.3,15.4,0004.1,0006.31,0015.42,0004.77
2023-05-02 14:29:00,,0830.0,5.00,0.00,26.8,25.3,00.0,35.1,28.3,15.5,0003.8,0006.34,0015.36,0004.78
2023-05-02 14:30:00,,0830.0,4.99,0.00,26.8,25.3,00.0,35.1,28.3,15.5,0003.6,0006.34,0015.36,0004.78
2023-05-02 14:31:00,,0830.0,4.99,0.00,26.8,25.3,00.0,35.1,28.3,15.4,0003.7,0006.41,0015.27,0004.80
2023-05-02 14:32:00,,0830.0,5.00,0.00,26.8,25.3,00.0,35.1,28.3,15.2,0004.4,0006.41,0014.69,0004.82
2023-05-02 14:33:00,,0830.0,5.00,0.00,26.8,25.3,00.0,35.1,28.3,15.4,0005.2,0006.38,0014.43,0004.82
2023-05-02 14:34:00,,0830.1,5.00,0.00,26.8,25.3,00.0,35.1,28.4,15.4,0005.2,0006.36,0015.50,0004.82
2023-05-02 14:35:00,,0830.0,5.01,0.00,26.8,25.3,00.0,35.1,28.4,15.1,0004.8,0006.39,0014.91,0004.84
2023-05-02 14:36:00,,0830.0,5.00,0.00,26.8,25.3,00.0,35.1,28.4,15.1,0004.8,0006.40,0014.73,0004.86
2023-05-02 14:37:00,,0830.0,5.00,0.00,26.8,25.3,00.0,35.1,28.4,15.1,0005.0,0006.39,0015.12,0004.88
2023-05-02 14:38:00,,0830.0,5.00,0.00,26.8,25.3,00.0,35.1,28.4,15.1,0004.4,0006.41,0015.64,0004.89
2023-05-02 14:39:00,,0830.0,4.99,0.00,26.8,25.3,00.0,35.1,28.4,15.2,0003.1,0006.39,0015.33,0004.91
2023-05-02 14:40:00,,0830.0,5.01,0.00,26.8,25.4,00.0,35.1,28.4,15.5,0002.1,0006.41,0015.64,0004.92
2023-05-02 14:41:00,,0830.1,5.00,0.00,26.8,25.4,00.0,35.1,28.4,15.3,0002.2,0006.41,0016.69,0004.93
2023-05-02 14:42:00,,0830.0,5.00,0.00,26.8,25.4,00.0,35.1,28.4,15.2,0002.8,0006.37,0016.67,0004.95
2023-05-02 14:43:00,,0830.0,5.00,0.00,26.8,25.4,00.0,35.1,28.4,15.3,0002.6,0006.42,0016.48,0004.97
2023-05-02 14:44:00,,0830.0,5.01,0.00,26.9,25.4,00.0,35.1,28.4,15.3,0001.6,0006.47,0017.16,0004.98
2023-05-02 14:45:00,,0830.0,5.01,0.00,26.9,25.4,00.0,35.2,28.4,15.3,0001.0,0006.49,0016.49,0004.98
2023-05-02 14:46:00,,0830.0,5.01,0.00,26.9,25.5,00.0,35.2,28.4,15.2,0001.2,0006.47,0016.71,0004.98
2023-05-02 14:47:00,,0830.0,5.00,0.00,26.9,25.5,00.0,35.2,28.5,15.3,0001.2,0006.51,0016.89,0004.99
2023-05-02 14:48:00,,0830.0,4.99,0.00,26.9,25.5,00.0,35.2,28.5,15.4,0000.8,0006.57,0016.97,0005.00
2023-05-02 14:49:00,,0830.0,4.99,0.00,26.9,25.5,00.0,35.2,28.5,15.4,0000.9,0006.56,0016.85,0005.00
2023-05-02 14:50:00,,0830.1,5.00,0.00,26.9,25.5,00.0,35.2,28.5,15.3,0002.7,0006.54,0017.41,0005.00
2023-05-02 14:51:00,,0830.1,5.01,0.00,26.9,25.5,00.0,35.2,28.5,15.5,0003.6,0006.51,0017.76,0005.00
2023-05-02 14:52:00,,0830.0,5.00,0.00,26.9,25.5,00.0,35.2,28.5,15.4,0003.4,0006.53,0016.92,0005.00
2023-05-02 14:53:00,,0830.1,5.00,0.00,26.9,25.5,00.0,35.2,28.5,15.5,0003.2,0006.53,0016.84,0005.00
2023-05-02 14:54:00,,0830.0,5.00,0.00,26.9,25.5,00.0,35.2,28.5,15.1,0002.7,0006.51,0017.14,0005.00
2023-05-02 14:55:00,,0830.0,5.00,0.00,26.9,25.5,00.0,35.2,28.6,15.2,0002.9,0006.50,0017.04,0004.99
2023-05-02 14:56:00,,0830.0,5.01,0.00,26.9,25.5,00.0,35.2,28.6,15.4,0003.4,0006.55,0018.17,0005.00
2023-05-02 14:57:00,,0830.0,5.01,0.00,26.9,25.5,00.0,35.2,28.6,15.2,0002.8,0006.61,0018.34,0005.02
2023-05-02 14:58:00,,0830.0,4.99,0.00,27.0,25.5,00.0,35.2,28.5,15.2,0002.9,0006.65,0018.37,0005.03
2023-05-02 14:59:00,,0830.1,4.99,0.00,27.0,25.5,00.0,35.3,28.5,15.2,0003.0,0006.67,0018.24,0005.03
